Flag for Cabo Verde Weather past 2 weeks in Santa Maria, Cabo Verde

Now
79 °F

Passing clouds.


Feels Like: 81 °F
Forecast: N/A
Wind: 15 mph from Northeast

Location: Sal

Current Time: Jul 24, 2014 at 7:20:04 PM

Latest Report: Jul 24, 2014 at 6:00 PM


Visibility: N/A

Pressure: 29.95 "Hg

Humidity: 65%

Dew point: 66 °F

Location of Santa MariaLocation

Historic Weather in Santa Maria — Graph

°F

Santa Maria temperature yesterday

Maximum temperature yesterday: 82 °F (at 1:00 PM)
Minimum temperature yesterday: 73 °F (at 2:00 AM)
Average temperature yesterday: 77 °F

Past Weeks' High & Low Weather Summary

 TemperatureHumidityPressure
High84 °F (Jul 21, 2:00 PM)89% (Jul 22, 1:00 AM)30.09 "Hg (Jul 22, 1:00 AM)
Low68 °F (Jul 11, 4:00 AM)51% (Jul 24, 11:00 AM)29.95 "Hg (Jul 9, 6:00 PM)
Average76 °F71%30.03 "Hg
* Reported Jul 9 6:00 PM — Jul 24 6:00 PM, Santa Maria, Weather by CustomWeather, © 2014

Note: Actual official high and low records may vary slightly from our data, if they occured in-between our weather recording intervals... More about our weather records

Advertising

Santa Maria weather history for previous 24 hours

 ConditionsComfort  
Time TempWeatherWind HumidityBarometerVisibility
6:00 PM
Jul 24
79 °FPassing clouds.15 mph65%29.95 "HgN/A
5:00 PM79 °FPartly sunny.14 mph61%29.95 "HgN/A
4:00 PM81 °FPartly sunny.15 mph54%29.98 "HgN/A
3:00 PM82 °FPartly sunny.14 mph51%29.98 "HgN/A
2:00 PM82 °FScattered clouds.14 mph51%30.01 "HgN/A
12:00 PM82 °FPartly sunny.10 mph55%30.04 "HgN/A
11:00 AM82 °FPartly sunny.9 mph51%30.07 "HgN/A
10:00 AM81 °FPartly sunny.9 mph58%30.04 "HgN/A
9:00 AM77 °FBroken clouds.9 mph61%30.07 "HgN/A
8:00 AM75 °FPartly sunny.8 mph69%30.04 "HgN/A
7:00 AM75 °FPartly sunny.7 mph69%30.04 "HgN/A
6:00 AM75 °FOvercast.9 mph74%30.01 "HgN/A
5:00 AM75 °FPartly sunny.9 mph74%30.01 "HgN/A
4:00 AM75 °FPassing clouds.9 mph74%30.01 "HgN/A
3:00 AM75 °FPassing clouds.9 mph74%30.01 "HgN/A
2:00 AM75 °FPassing clouds.9 mph69%30.01 "HgN/A
1:00 AM75 °FPassing clouds.10 mph69%30.01 "HgN/A
12:00 AM75 °FPassing clouds.9 mph69%30.04 "HgN/A
11:00 PM
Jul 23
75 °FPassing clouds.10 mph69%30.04 "HgN/A
10:00 PM75 °FPassing clouds.12 mph74%30.04 "HgN/A
9:00 PM75 °FPassing clouds.10 mph74%30.04 "HgN/A
8:00 PM75 °FPassing clouds.12 mph74%30.01 "HgN/A
Weather by CustomWeather, © 2014

See weather overviewHow to use our weather pages